User: anonymous   Login
Location: Clatteringshaws Loch
(55.0508°N, 4.2860°W)
Time: 01:12:24
(UTC+00:00)
Language:

Sapphire - Orbit

View from above orbital plane
View from above orbital plane
View from above satellite
View from above satellite

Ground track
Ground track

The orbit data is extracted from the following two-line orbital elements,

1 26932U 01043D   17023.46380520 -.00000065  00000-0  69825-5 0  9998
2 26932  67.0567 106.7311 0005491 294.1121  65.9405 14.30237561799672
Epoch (UTC): 23 January 2017 11:07:52
Eccentricity: 0.0005491
inclination: 67.0567°
perigee height: 787 km
apogee height: 795 km
right ascension of ascending node: 106.7311°
argument of perigee: 294.1121°
revolutions per day: 14.30237561
mean anomaly at epoch: 65.9405°
orbit number at epoch: 79967

The dashed part of the orbit path shows where the satellite is in the earth's shadow,  

DLR